Content
SEND FEEDBACK

Daily
Averages
Monthly
Summary
United States of America

RIVER FALLS, WISCONSIN


Home > North America > United States > Wisconsin
Elevation: 300 meters     Latitude: 44 52N     Longitude: 092 37W

WEATHER
 
SELECT A DAY
Number of Records: 158,981;   Date Range: 6/9/08 - 11/20/14
 
SHARE

PRINT THIS DATA

[ ← Previous Day ]
WEATHER ALMANAC - 31 JANUARY, 2013
[ Next Day → ]
[ °F ]   °C
Weather ElementAverageHighLow
Temperature-16.9 °C-13 °C (12:35 am)-22 °C (11:15 pm)
Dewpoint-21.6 °C-17 °C (12:35 am)-27 °C (11:35 pm)
Humidity67.8 %85 % (2:15 am)60 % (7:15 pm)
Barometer1015.6 hPa1024 hPa (11:35 pm)1007.1 hPa (12:35 am)
Wind Speed21.9 km/h31.5 km/h (9:15 am)
Wind Gust40.7 km/h (9:15 am)
Weather ElementAverage
Visibility14.3 km
Wind DirectionWNW (296.8 °)

Weather ElementTotal
Precipitation---
Heating Degree Days35.8 (Base 18.3)
Averaged from 69 records on 31 January, 2013
WEATHER CONDITIONS BREAKOUT
WIND DIRECTION BREAKOUT
WEATHER BY HOUR - 31 JANUARY, 2013
[ °F ]   °C
Local TimeTemperatureDewpointHumidityBarometerVisibilityWind DirectionWind SpeedGust SpeedPrecipitationEventsConditions
12:35 AM-13 °C-17 °C73 %1007.1 hPa16.1 kmWNW (290°)25.9 km/h33.3 km/hOvercast
12:55 AM-13 °C-17 °C73 %1007.1 hPa16.1 kmWNW (290°)22.2 km/h29.6 km/hOvercast
1:15 AM-13 °C-17 °C73 %1007.5 hPa16.1 kmWNW (290°)16.7 km/hOvercast
1:35 AM-14 °C-18 °C72 %1007.8 hPa16.1 kmWest (280°)20.4 km/h29.6 km/hOvercast
1:55 AM-14 °C-18 °C72 %1008.1 hPa11.3 kmWNW (290°)18.5 km/hOvercast
2:15 AM-15 °C-17 °C85 %1008.1 hPa8 kmWNW (290°)18.5 km/h27.8 km/hSnowLight Snow
2:35 AM-15 °C-18 °C78 %1008.1 hPa11.3 kmWNW (300°)18.5 km/hOvercast
2:55 AM-15 °C-18 °C78 %1008.1 hPa11.3 kmWNW (300°)20.4 km/hOvercast
3:15 AM-15 °C-18 °C78 %1008.1 hPa8 kmWNW (290°)18.5 km/hHaze
3:35 AM-15 °C-18 °C78 %1008.1 hPa16.1 kmWNW (300°)18.5 km/hOvercast
3:55 AM-15 °C-18 °C78 %1008.5 hPa16.1 kmWNW (290°)13 km/hOvercast
4:15 AM-15 °C-18 °C78 %1008.8 hPa16.1 kmWNW (300°)25.9 km/h33.3 km/hOvercast
4:35 AM-15 °C-19 °C72 %1008.8 hPa16.1 kmWNW (300°)16.7 km/hOvercast
4:55 AM-15 °C-20 °C66 %1009.1 hPa16.1 kmWNW (290°)22.2 km/h33.3 km/hOvercast
5:15 AM-16 °C-20 °C72 %1009.5 hPa16.1 kmWNW (300°)24.1 km/hOvercast
5:35 AM-16 °C-20 °C72 %1009.5 hPa16.1 kmWNW (300°)25.9 km/h35.2 km/hOvercast
6:15 AM-16 °C-20 °C72 %1010.2 hPa16.1 kmWNW (300°)20.4 km/h29.6 km/hOvercast
6:35 AM-16 °C-20 °C72 %1010.5 hPa16.1 kmWNW (290°)14.8 km/hOvercast
6:55 AM-16 °C-20 °C72 %1010.8 hPa16.1 kmWNW (300°)24.1 km/h31.5 km/hOvercast
7:15 AM-16 °C-20 °C72 %1011.2 hPa16.1 kmWNW (300°)18.5 km/h24.1 km/hOvercast
7:35 AM-16 °C-20 °C72 %1011.5 hPa16.1 kmNW (310°)24.1 km/h35.2 km/hOvercast
7:55 AM-16 °C-20 °C72 %1011.9 hPa16.1 kmWNW (290°)27.8 km/h35.2 km/hOvercast
8:15 AM-16 °C-21 °C66 %1012.2 hPa16.1 kmWNW (290°)22.2 km/h35.2 km/hOvercast
8:35 AM-17 °C-21 °C72 %1012.5 hPa16.1 kmWNW (300°)22.2 km/h35.2 km/hScattered Clouds
8:55 AM-17 °C-21 °C72 %1012.9 hPa16.1 kmWNW (300°)22.2 km/h29.6 km/hScattered Clouds
9:15 AM-17 °C-22 °C66 %1013.2 hPa16.1 kmWNW (300°)31.5 km/h40.7 km/hScattered Clouds
9:35 AM-17 °C-22 °C66 %1013.5 hPa16.1 kmNW (310°)27.8 km/h37 km/hScattered Clouds
9:55 AM-17 °C-22 °C66 %1013.9 hPa16.1 kmWNW (300°)25.9 km/h35.2 km/hScattered Clouds
10:15 AM-17 °C-22 °C66 %1014.6 hPa16.1 kmWNW (290°)25.9 km/h31.5 km/hScattered Clouds
10:35 AM-17 °C-22 °C66 %1014.9 hPa16.1 kmWNW (300°)27.8 km/h33.3 km/hMostly Cloudy
10:55 AM-17 °C-21 °C72 %1015.2 hPa6.4 kmWNW (300°)25.9 km/hHaze
11:15 AM-17 °C-21 °C72 %1015.2 hPa8 kmNW (310°)25.9 km/h33.3 km/hHaze
11:35 AM-17 °C-22 °C66 %1015.6 hPa11.3 kmWNW (300°)25.9 km/h31.5 km/hOvercast
11:55 AM-17 °C-22 °C66 %1015.6 hPa11.3 kmNW (310°)24.1 km/h37 km/hOvercast
12:15 PM-17 °C-21 °C72 %1015.6 hPa6.4 kmNW (310°)22.2 km/h31.5 km/hHaze
12:35 PM-17 °C-22 °C66 %1015.9 hPa6.4 kmWNW (290°)24.1 km/h37 km/hHaze
12:55 PM-17 °C-21 °C72 %1016.3 hPa6.4 kmWNW (300°)22.2 km/h31.5 km/hHaze
1:15 PM-16 °C-22 °C61 %1016.3 hPa11.3 kmWNW (290°)22.2 km/h35.2 km/hOvercast
1:35 PM-16 °C-22 °C61 %1016.6 hPa8 kmWNW (290°)24.1 km/h33.3 km/hHaze
1:55 PM-16 °C-21 °C66 %1016.6 hPa11.3 kmNW (310°)25.9 km/h33.3 km/hOvercast
2:15 PM-16 °C-22 °C61 %1016.9 hPa16.1 kmWNW (290°)29.6 km/h37 km/hOvercast
2:35 PM-16 °C-22 °C61 %1016.9 hPa11.3 kmWNW (300°)27.8 km/h33.3 km/hOvercast
2:55 PM-16 °C-21 °C66 %1017.3 hPa8 kmWNW (300°)31.5 km/h40.7 km/hHaze
3:15 PM-16 °C-22 °C61 %1017.6 hPa16.1 kmWNW (300°)29.6 km/h40.7 km/hOvercast
3:35 PM-16 °C-22 °C61 %1017.9 hPa16.1 kmWNW (300°)25.9 km/h38.9 km/hOvercast
3:55 PM-16 °C-22 °C61 %1018.3 hPa16.1 kmWNW (300°)27.8 km/h40.7 km/hScattered Clouds
4:15 PM-16 °C-22 °C61 %1018.6 hPa16.1 kmWNW (300°)22.2 km/h31.5 km/hScattered Clouds
4:35 PM-16 °C-22 °C61 %1019 hPa16.1 kmWNW (290°)20.4 km/hClear
4:55 PM-17 °C-22 °C66 %1019.3 hPa16.1 kmWNW (300°)20.4 km/hClear
5:15 PM-17 °C-22 °C66 %1019.6 hPa16.1 kmWNW (290°)18.5 km/hClear
5:35 PM-17 °C-23 °C61 %1020 hPa16.1 kmWNW (290°)18.5 km/h33.3 km/hClear
5:55 PM-17 °C-23 °C61 %1020.3 hPa16.1 kmWNW (290°)25.9 km/hClear
6:15 PM-17 °C-23 °C61 %1020.7 hPa16.1 kmWNW (290°)22.2 km/h31.5 km/hClear
6:35 PM-18 °C-23 °C66 %1021 hPa16.1 kmWNW (300°)18.5 km/h37 km/hClear
7:15 PM-18 °C-24 °C60 %1021.3 hPa16.1 kmWNW (300°)20.4 km/h29.6 km/hClear
7:35 PM-18 °C-24 °C60 %1021.7 hPa16.1 kmWNW (290°)18.5 km/h29.6 km/hClear
7:55 PM-18 °C-24 °C60 %1022 hPa16.1 kmWNW (300°)20.4 km/hClear
8:15 PM-19 °C-24 °C66 %1022 hPa16.1 kmWNW (300°)16.7 km/h29.6 km/hClear
8:35 PM-19 °C-25 °C60 %1022.4 hPa16.1 kmWNW (290°)14.8 km/h25.9 km/hClear
8:55 PM-20 °C-25 °C65 %1022.4 hPa16.1 kmWNW (300°)16.7 km/h27.8 km/hClear
9:15 PM-20 °C-25 °C65 %1022.7 hPa16.1 kmWNW (290°)16.7 km/hClear
9:35 PM-20 °C-25 °C65 %1022.7 hPa16.1 kmWNW (290°)16.7 km/h27.8 km/hClear
9:55 PM-20 °C-25 °C65 %1023 hPa16.1 kmWNW (290°)20.4 km/h29.6 km/hClear
10:15 PM-21 °C-26 °C65 %1023.4 hPa16.1 kmWNW (300°)16.7 km/hClear
10:35 PM-21 °C-26 °C65 %1023.4 hPa16.1 kmWNW (300°)16.7 km/hClear
10:55 PM-21 °C-26 °C65 %1023.7 hPa16.1 kmWNW (300°)16.7 km/hClear
11:15 PM-22 °C-26 °C71 %1023.7 hPa16.1 kmWNW (300°)9.3 km/hClear
11:35 PM-22 °C-27 °C65 %1024 hPa16.1 kmWNW (300°)24.1 km/h31.5 km/hClear
11:55 PM-22 °C-27 °C65 %1024 hPa16.1 kmWNW (300°)16.7 km/hClear
Hourly data recorded from K21D, located 0 kilometers away from River Falls, Wisconsin







STORIES FROM OUR PARTNERS